Sadsburyville, PA

9:01 PM EST on February 06, 2016 (GMT -0500)
Chester County Carlson

Weather History for KMQS - October, 2012

Change the Weather History Date:

Tuesday, October 9, 2012

  Actual Average (KLNS) Record (KLNS)
Temperature  
Mean Temperature 50 °F -  
Max Temperature 53 °F 67 °F 90 °F (2007)
Min Temperature 46 °F 45 °F 27 °F (2001)
Degree Days  
Heating Degree Days 16    
Moisture  
Dew Point 48 °F    
Average Humidity 92    
Maximum Humidity 100    
Minimum Humidity 81    
Precipitation  
Precipitation 0.06 in - - ()
Sea Level Pressure  
Sea Level Pressure 30.17 in    
Wind  
Wind Speed 5 mph (NNE)    
Max Wind Speed 8 mph    
Max Gust Speed -    
Visibility 7 miles    
Events Fog , Rain    
Averages and records for this station are not official NWS values.
T = Trace of Precipitation, MM = Missing Value Source: NWS Daily Summary

Daily Weather History Graph

Daily Weather History Graph

Search for Another Location

Airport or City:

Trip Planner

Search our weather history database for the weather conditions in past years. The results will help you decide how hot, cold, wet, or windy it might be!

Date:

Astronomy

Oct. 09, 2012 Rise Set
Actual Time 7:08 AM EDT 6:32 PM EDT
Civil Twilight 6:41 AM EDT 6:59 PM EDT
Nautical Twilight 6:09 AM EDT 7:30 PM EDT
Astronomical Twilight 5:38 AM EDT 8:02 PM EDT
Moon 12:42 AM EDT (10/9) 2:58 PM EDT (10/9)
Length of Visible Light 12h 18m
Length of Day
11h 24m
Last Quarter, 37% of the Moon is Illuminated
Oct 9
Last Quarter
Oct 15
New
Oct 21
First Quarter
Oct 29
Full
Nov 6
Last Quarter

Hourly Weather History & Observations

Time (EDT) Temp. Windchill Dew Point Humidity Pressure Visibility Wind Dir Wind Speed Gust Speed Precip Events Conditions
12:15 AM 46.4 °F 43.5 °F 42.8 °F 87% 30.24 in 10.0 mi North 5.8 mph - N/A   Scattered Clouds
12:35 AM 46.4 °F 45.2 °F 42.8 °F 87% 30.23 in 10.0 mi NNE 3.5 mph - N/A Rain Light Rain
12:55 AM 46.4 °F 43.5 °F 42.8 °F 87% 30.22 in 10.0 mi North 5.8 mph - N/A Rain Light Rain
1:15 AM 46.4 °F 44.3 °F 42.8 °F 87% 30.22 in 10.0 mi NNE 4.6 mph - N/A   Overcast
1:35 AM 46.4 °F 43.5 °F 42.8 °F 87% 30.22 in 10.0 mi North 5.8 mph - N/A   Overcast
1:55 AM 46.4 °F 42.9 °F 41.0 °F 81% 30.22 in 10.0 mi North 6.9 mph - N/A   Overcast
2:55 AM 46.4 °F 42.9 °F 41.0 °F 81% 30.21 in 10.0 mi North 6.9 mph - N/A   Overcast
3:15 AM 46.4 °F 43.5 °F 42.8 °F 87% 30.21 in 10.0 mi North 5.8 mph - N/A   Overcast
3:35 AM 46.4 °F 42.4 °F 42.8 °F 87% 30.20 in 6.0 mi NNE 8.1 mph - 0.01 in Rain Rain
3:55 AM 46.4 °F 43.5 °F 42.8 °F 87% 30.21 in 10.0 mi North 5.8 mph - 0.02 in   Overcast
4:15 AM 46.4 °F 43.5 °F 42.8 °F 87% 30.21 in 10.0 mi North 5.8 mph - N/A   Overcast
4:35 AM 46.4 °F 44.3 °F 44.6 °F 93% 30.21 in 10.0 mi North 4.6 mph - N/A   Overcast
4:55 AM 46.4 °F 43.5 °F 44.6 °F 93% 30.20 in 10.0 mi North 5.8 mph - N/A   Overcast
5:15 AM 46.4 °F 43.5 °F 44.6 °F 93% 30.20 in 10.0 mi NNE 5.8 mph - N/A   Overcast
5:35 AM 46.4 °F 45.2 °F 44.6 °F 93% 30.20 in 10.0 mi NNE 3.5 mph - N/A   Overcast
5:55 AM 46.4 °F 45.2 °F 44.6 °F 93% 30.21 in 10.0 mi North 3.5 mph - N/A   Overcast
6:15 AM 46.4 °F 44.3 °F 44.6 °F 93% 30.19 in 10.0 mi North 4.6 mph - N/A   Overcast
6:35 AM 46.4 °F 43.5 °F 44.6 °F 93% 30.20 in 9.0 mi North 5.8 mph - N/A Rain Light Rain
7:15 AM 46.4 °F 44.3 °F 46.4 °F 100% 30.21 in 5.0 mi NNE 4.6 mph - 0.01 in Rain Light Rain
7:35 AM 46.4 °F - 46.4 °F 100% 30.20 in 5.0 mi Calm Calm - 0.01 in Rain Light Rain
7:55 AM 46.4 °F 44.3 °F 46.4 °F 100% 30.21 in 3.0 mi NNE 4.6 mph - 0.02 in Rain Light Rain
8:15 AM 48.2 °F - 46.4 °F 93% 30.20 in 6.0 mi NNE 4.6 mph - N/A   Overcast
8:35 AM 48.2 °F - 46.4 °F 93% 30.20 in 8.0 mi NE 3.5 mph - N/A   Overcast
8:55 AM 48.2 °F - 46.4 °F 93% 30.20 in 10.0 mi NE 3.5 mph - N/A   Overcast
9:15 AM 50.0 °F - 46.4 °F 87% 30.21 in 10.0 mi NNE 5.8 mph - N/A   Overcast
9:35 AM 50.0 °F - 46.4 °F 87% 30.21 in 10.0 mi NE 4.6 mph - N/A   Overcast
9:55 AM 51.8 °F - 46.4 °F 82% 30.21 in 10.0 mi NE 3.5 mph - N/A   Overcast
10:15 AM 51.8 °F - 46.4 °F 82% 30.21 in 10.0 mi NE 4.6 mph - N/A   Overcast
10:35 AM 51.8 °F - 48.2 °F 88% 30.21 in 10.0 mi NE 4.6 mph - N/A   Overcast
10:55 AM 51.8 °F - 46.4 °F 82% 30.21 in 10.0 mi NE 5.8 mph - N/A   Overcast
11:15 AM 53.6 °F - 48.2 °F 82% 30.20 in 9.0 mi NE 4.6 mph - N/A   Overcast
11:35 AM 51.8 °F - 48.2 °F 88% 30.20 in 3.0 mi NNE 6.9 mph - N/A   Overcast
11:55 AM 51.8 °F - 48.2 °F 88% 30.20 in 4.0 mi NNE 4.6 mph - N/A   Overcast
12:15 PM 51.8 °F - 50.0 °F 94% 30.19 in 1.8 mi NNE 5.8 mph - N/A   Overcast
12:35 PM 53.6 °F - 51.8 °F 94% 30.19 in 1.0 mi NE 4.6 mph - 0.02 in   Light Drizzle
12:55 PM 53.6 °F - 51.8 °F 94% 30.18 in 3.0 mi NNE 5.8 mph - 0.02 in   Light Drizzle
1:15 PM 53.6 °F - 51.8 °F 94% 30.16 in 1.5 mi NE 4.6 mph - N/A   Light Drizzle
1:35 PM 53.6 °F - 51.8 °F 94% 30.16 in 2.0 mi NNE 5.8 mph - N/A   Overcast
1:55 PM 53.6 °F - 51.8 °F 94% 30.15 in 7.0 mi North 5.8 mph - N/A   Overcast
2:15 PM 53.6 °F - 51.8 °F 94% 30.14 in 2.0 mi NE 4.6 mph - N/A Rain Light Rain
2:35 PM 53.6 °F - 51.8 °F 94% 30.14 in 3.0 mi NNE 3.5 mph - N/A   Overcast
2:55 PM 53.6 °F - 51.8 °F 94% 30.14 in 2.5 mi NE 3.5 mph - N/A   Light Drizzle
3:15 PM 53.6 °F - 51.8 °F 94% 30.14 in 5.0 mi NNE 5.8 mph - N/A   Overcast
3:35 PM 53.6 °F - 51.8 °F 94% 30.14 in 9.0 mi North 3.5 mph - N/A   Overcast
3:55 PM 53.6 °F - 51.8 °F 94% 30.14 in 10.0 mi Calm Calm - N/A   Overcast
4:15 PM 53.6 °F - 51.8 °F 94% 30.13 in 10.0 mi NE 3.5 mph - N/A   Overcast
4:35 PM 53.6 °F - 51.8 °F 94% 30.13 in 10.0 mi NNE 3.5 mph - N/A   Overcast
4:55 PM 53.6 °F - 51.8 °F 94% 30.13 in 10.0 mi NNE 3.5 mph - N/A   Overcast
5:15 PM 53.6 °F - 51.8 °F 94% 30.14 in 10.0 mi North 3.5 mph - N/A   Overcast
5:35 PM 53.6 °F - 51.8 °F 94% 30.13 in 5.0 mi NNE 3.5 mph - N/A   Overcast
5:55 PM 53.6 °F - 51.8 °F 94% 30.13 in 10.0 mi NNE 3.5 mph - N/A   Overcast
6:15 PM 53.6 °F - 51.8 °F 94% 30.13 in 10.0 mi Calm Calm - N/A   Overcast
6:55 PM 53.6 °F - 51.8 °F 94% 30.12 in 10.0 mi Calm Calm - N/A   Overcast
7:15 PM 53.6 °F - 51.8 °F 94% 30.12 in 10.0 mi North 3.5 mph - N/A   Overcast
7:35 PM 53.6 °F - 51.8 °F 94% 30.13 in 10.0 mi NNW 3.5 mph - N/A   Overcast
7:55 PM 53.6 °F - 51.8 °F 94% 30.12 in 10.0 mi NNE 4.6 mph - N/A   Overcast
8:15 PM 53.6 °F - 51.8 °F 94% 30.12 in 10.0 mi NNE 4.6 mph - N/A   Overcast
8:35 PM 53.6 °F - 51.8 °F 94% 30.11 in 10.0 mi North 3.5 mph - N/A   Overcast
8:55 PM 53.6 °F - 51.8 °F 94% 30.11 in 10.0 mi North 3.5 mph - N/A   Overcast
9:15 PM 53.6 °F - 51.8 °F 94% 30.11 in 10.0 mi Calm Calm - N/A   Overcast
9:35 PM 53.6 °F - 51.8 °F 94% 30.11 in 10.0 mi NNE 3.5 mph - N/A   Overcast
10:15 PM 53.6 °F - 51.8 °F 94% 30.10 in 4.0 mi NNE 3.5 mph - N/A   Overcast
10:35 PM 53.6 °F - 51.8 °F 94% 30.10 in 1.2 mi Calm Calm - N/A   Overcast
10:55 PM 53.6 °F - 53.6 °F 100% 30.09 in 1.0 mi NNE 3.5 mph - N/A   Overcast
11:15 PM 53.6 °F - 53.6 °F 100% 30.09 in 0.8 mi Calm Calm - N/A   Overcast
11:35 PM 53.6 °F - 53.6 °F 100% 30.09 in 0.5 mi ENE 3.5 mph - N/A Fog Fog
11:55 PM 53.6 °F - 53.6 °F 100% 30.08 in 0.5 mi Calm Calm - N/A Fog Fog